N414WB KILM-KORF

Flight info

Callsign N414WB
Flight time 1h 6m
Altitude 19000
Route WALLO NUTZE KOHLS1
Aircraft C414/L-SBDFGRY/S

Departure

Time 2026-04-28 01:11
Airport Wilmington International Airport (KILM)

Arrival

Time 2026-04-28 02:18
Airport Norfolk International Airport (KORF)
Time Latitude Longitude Altitude Speed Heading
2026-04-28 00:44 34.27088 -77.90958 28 ft 0 kts 274°
2026-04-28 01:05 34.27088 -77.90961 19 ft 2 kts 257°
2026-04-28 01:05 34.27088 -77.90997 28 ft 6 kts 310°
2026-04-28 01:05 34.27123 -77.90981 28 ft 8 kts 96°
2026-04-28 01:05 34.27126 -77.90902 28 ft 11 kts 90°
2026-04-28 01:06 34.27126 -77.90808 29 ft 10 kts 90°
2026-04-28 01:06 34.27122 -77.90720 29 ft 12 kts 94°
2026-04-28 01:06 34.27070 -77.90648 28 ft 13 kts 155°
2026-04-28 01:06 34.26982 -77.90607 28 ft 14 kts 159°
2026-04-28 01:07 34.26883 -77.90563 27 ft 16 kts 159°
2026-04-28 01:07 34.26842 -77.90543 27 ft 0 kts 158°
2026-04-28 01:07 34.26827 -77.90537 27 ft 7 kts 160°
2026-04-28 01:07 34.26783 -77.90538 26 ft 11 kts 213°
2026-04-28 01:08 34.26709 -77.90634 27 ft 14 kts 228°
2026-04-28 01:08 34.26640 -77.90727 27 ft 15 kts 228°
2026-04-28 01:08 34.26570 -77.90821 27 ft 15 kts 226°
2026-04-28 01:08 34.26501 -77.90915 25 ft 15 kts 228°
2026-04-28 01:09 34.26433 -77.91004 25 ft 15 kts 226°
2026-04-28 01:09 34.26360 -77.91097 25 ft 14 kts 225°
2026-04-28 01:09 34.26288 -77.91099 24 ft 12 kts 140°
2026-04-28 01:09 34.26224 -77.91031 23 ft 9 kts 137°
2026-04-28 01:10 34.26215 -77.90992 23 ft 5 kts 49°
2026-04-28 01:10 34.26259 -77.90934 25 ft 24 kts 47°
2026-04-28 01:10 34.26490 -77.90619 27 ft 74 kts 48°
2026-04-28 01:10 34.26913 -77.90054 99 ft 101 kts 47°
2026-04-28 01:11 34.27388 -77.89410 373 ft 105 kts 51°
2026-04-28 01:11 34.27871 -77.88750 710 ft 104 kts 50°
2026-04-28 01:11 34.28351 -77.88110 1099 ft 99 kts 48°
2026-04-28 01:11 34.28934 -77.87726 1492 ft 100 kts
2026-04-28 01:12 34.29660 -77.87926 1772 ft 113 kts 349°
2026-04-28 01:12 34.30446 -77.88227 2027 ft 122 kts 349°
2026-04-28 01:12 34.31268 -77.88535 2293 ft 124 kts 348°
2026-04-28 01:12 34.31815 -77.88759 2497 ft 123 kts 344°
2026-04-28 01:13 34.32556 -77.89175 2876 ft 118 kts 339°
2026-04-28 01:13 34.34043 -77.90131 3420 ft 123 kts 338°
2026-04-28 01:13 34.34791 -77.90623 3743 ft 120 kts 334°
2026-04-28 01:14 34.35517 -77.91078 4029 ft 115 kts 356°
2026-04-28 01:14 34.36302 -77.91156 4319 ft 113 kts 358°
2026-04-28 01:14 34.37079 -77.91254 4602 ft 112 kts 359°
2026-04-28 01:14 34.37861 -77.91339 4852 ft 114 kts 359°
2026-04-28 01:15 34.38662 -77.91421 5108 ft 116 kts 358°
2026-04-28 01:15 34.39477 -77.91502 5364 ft 118 kts 358°
2026-04-28 01:15 34.40303 -77.91583 5632 ft 120 kts 357°
2026-04-28 01:15 34.41138 -77.91667 5906 ft 121 kts 357°
2026-04-28 01:16 34.41978 -77.91748 6184 ft 121 kts 356°
2026-04-28 01:16 34.42822 -77.91831 6465 ft 122 kts 355°
2026-04-28 01:16 34.43669 -77.91915 6740 ft 122 kts 355°
2026-04-28 01:16 34.44520 -77.91998 7002 ft 123 kts 355°
2026-04-28 01:17 34.45372 -77.92081 7265 ft 123 kts 355°
2026-04-28 01:17 34.46229 -77.92165 7522 ft 124 kts 355°
2026-04-28 01:17 34.47088 -77.92250 7803 ft 124 kts 355°
2026-04-28 01:17 34.47949 -77.92335 8075 ft 124 kts 355°
2026-04-28 01:18 34.48813 -77.92419 8346 ft 125 kts 355°
2026-04-28 01:18 34.49679 -77.92505 8621 ft 125 kts 355°
2026-04-28 01:18 34.50547 -77.92590 8899 ft 126 kts 354°
2026-04-28 01:18 34.51427 -77.92676 9156 ft 128 kts 354°
2026-04-28 01:19 34.52317 -77.92763 9422 ft 129 kts 354°
2026-04-28 01:19 34.53214 -77.92852 9692 ft 130 kts 354°
2026-04-28 01:19 34.54117 -77.92941 9966 ft 131 kts 354°
2026-04-28 01:19 34.55026 -77.93030 10228 ft 131 kts 354°
2026-04-28 01:20 34.55938 -77.93120 10482 ft 132 kts 354°
2026-04-28 01:20 34.56840 -77.93209 10729 ft 132 kts 353°
2026-04-28 01:20 34.57757 -77.93299 10983 ft 132 kts 353°
2026-04-28 01:20 34.58678 -77.93389 11226 ft 134 kts 353°
2026-04-28 01:21 34.59610 -77.93481 11473 ft 135 kts 353°
2026-04-28 01:21 34.60548 -77.93573 11729 ft 136 kts 352°
2026-04-28 01:21 34.61490 -77.93666 11990 ft 136 kts 352°
2026-04-28 01:21 34.62432 -77.93759 12255 ft 136 kts 352°
2026-04-28 01:22 34.63376 -77.93852 12522 ft 136 kts 351°
2026-04-28 01:22 34.64321 -77.93945 12791 ft 136 kts 351°
2026-04-28 01:22 34.65265 -77.94038 13061 ft 136 kts 351°
2026-04-28 01:22 34.66210 -77.94132 13333 ft 136 kts 350°
2026-04-28 01:23 34.67154 -77.94224 13608 ft 136 kts 350°
2026-04-28 01:23 34.68097 -77.94317 13907 ft 136 kts 349°
2026-04-28 01:23 34.69040 -77.94411 14169 ft 136 kts 349°
2026-04-28 01:23 34.69983 -77.94504 14414 ft 136 kts 349°
2026-04-28 01:24 34.70928 -77.94597 14659 ft 136 kts 349°
2026-04-28 01:24 34.71872 -77.94690 14909 ft 136 kts 349°
2026-04-28 01:24 34.72819 -77.94784 15151 ft 137 kts 349°
2026-04-28 01:24 34.73768 -77.94878 15395 ft 137 kts 349°
2026-04-28 01:25 34.74719 -77.94972 15640 ft 137 kts 349°
2026-04-28 01:25 34.75673 -77.95066 15890 ft 138 kts 349°
2026-04-28 01:25 34.76628 -77.95161 16139 ft 138 kts 349°
2026-04-28 01:25 34.77584 -77.95255 16388 ft 138 kts 349°
2026-04-28 01:26 34.78544 -77.95350 16638 ft 138 kts 349°
2026-04-28 01:26 34.79505 -77.95446 16892 ft 139 kts 349°
2026-04-28 01:26 34.80469 -77.95541 17143 ft 139 kts 349°
2026-04-28 01:26 34.81434 -77.95636 17402 ft 139 kts 349°
2026-04-28 01:27 34.82401 -77.95732 17660 ft 139 kts 349°
2026-04-28 01:27 34.83355 -77.95827 17909 ft 140 kts 349°
2026-04-28 01:27 34.84327 -77.95923 18143 ft 141 kts 349°
2026-04-28 01:27 34.85310 -77.96020 18384 ft 142 kts 349°
2026-04-28 01:28 34.86300 -77.96119 18625 ft 143 kts 349°
2026-04-28 01:28 34.87293 -77.96217 18842 ft 143 kts 349°
2026-04-28 01:28 34.88302 -77.96096 19027 ft 151 kts
2026-04-28 01:28 34.89371 -77.95769 19053 ft 165 kts
2026-04-28 01:29 34.90534 -77.95431 19060 ft 178 kts
2026-04-28 01:29 34.91781 -77.95072 19060 ft 189 kts
2026-04-28 01:29 34.93090 -77.94696 19077 ft 196 kts
2026-04-28 01:29 34.94417 -77.94313 19212 ft 196 kts
2026-04-28 01:30 34.95749 -77.93932 19288 ft 199 kts
2026-04-28 01:30 34.97118 -77.93541 19299 ft 205 kts
2026-04-28 01:30 34.98523 -77.93138 19306 ft 210 kts
2026-04-28 01:30 34.99955 -77.92727 19304 ft 213 kts
2026-04-28 01:31 35.01410 -77.92310 19306 ft 216 kts
2026-04-28 01:31 35.02880 -77.91887 19303 ft 218 kts
2026-04-28 01:31 35.04362 -77.91463 19306 ft 220 kts
2026-04-28 01:31 35.05854 -77.91034 19302 ft 221 kts
2026-04-28 01:32 35.07357 -77.90602 19297 ft 222 kts
2026-04-28 01:32 35.08861 -77.90170 19292 ft 222 kts
2026-04-28 01:32 35.10363 -77.89738 19292 ft 222 kts
2026-04-28 01:32 35.11863 -77.89307 19289 ft 221 kts
2026-04-28 01:33 35.13361 -77.88876 19288 ft 221 kts
2026-04-28 01:33 35.14858 -77.88446 19288 ft 221 kts
2026-04-28 01:33 35.16354 -77.88015 19290 ft 221 kts
2026-04-28 01:33 35.17847 -77.87585 19285 ft 220 kts
2026-04-28 01:34 35.19320 -77.87161 19290 ft 220 kts
2026-04-28 01:34 35.20814 -77.86731 19282 ft 220 kts
2026-04-28 01:34 35.22307 -77.86300 19282 ft 221 kts
2026-04-28 01:34 35.23800 -77.85870 19280 ft 221 kts
2026-04-28 01:35 35.25297 -77.85438 19280 ft 221 kts
2026-04-28 01:35 35.26794 -77.85007 19281 ft 221 kts
2026-04-28 01:35 35.28290 -77.84574 19283 ft 221 kts
2026-04-28 01:35 35.29787 -77.84142 19280 ft 221 kts
2026-04-28 01:36 35.31286 -77.83709 19281 ft 221 kts
2026-04-28 01:36 35.32783 -77.83276 19283 ft 221 kts
2026-04-28 01:36 35.34280 -77.82844 19282 ft 221 kts
2026-04-28 01:36 35.35778 -77.82411 19284 ft 221 kts
2026-04-28 01:37 35.37275 -77.81978 19283 ft 221 kts
2026-04-28 01:37 35.38771 -77.81544 19283 ft 221 kts
2026-04-28 01:37 35.40268 -77.81111 19281 ft 221 kts
2026-04-28 01:37 35.41766 -77.80677 19293 ft 221 kts
2026-04-28 01:38 35.43262 -77.80244 19295 ft 221 kts
2026-04-28 01:38 35.44762 -77.79809 19293 ft 221 kts
2026-04-28 01:38 35.46261 -77.79375 19294 ft 221 kts
2026-04-28 01:38 35.47759 -77.78940 19294 ft 221 kts
2026-04-28 01:39 35.49258 -77.78505 19294 ft 221 kts
2026-04-28 01:39 35.50757 -77.78070 19293 ft 221 kts
2026-04-28 01:39 35.52257 -77.77634 19295 ft 221 kts
2026-04-28 01:39 35.53756 -77.77199 19293 ft 221 kts
2026-04-28 01:40 35.55255 -77.76763 19293 ft 221 kts
2026-04-28 01:40 35.56755 -77.76327 19291 ft 221 kts
2026-04-28 01:40 35.58253 -77.75891 19290 ft 222 kts
2026-04-28 01:40 35.59754 -77.75455 19290 ft 222 kts
2026-04-28 01:41 35.61254 -77.75018 19285 ft 222 kts
2026-04-28 01:41 35.62754 -77.74581 19286 ft 222 kts
2026-04-28 01:41 35.64254 -77.74145 19283 ft 221 kts
2026-04-28 01:41 35.65752 -77.73707 19282 ft 222 kts
2026-04-28 01:42 35.67253 -77.73270 19281 ft 221 kts
2026-04-28 01:42 35.68752 -77.72833 19284 ft 221 kts
2026-04-28 01:42 35.70231 -77.72402 19285 ft 222 kts
2026-04-28 01:42 35.71731 -77.71964 19285 ft 222 kts
2026-04-28 01:43 35.73230 -77.71526 19280 ft 222 kts
2026-04-28 01:43 35.74731 -77.71088 19281 ft 222 kts
2026-04-28 01:43 35.76230 -77.70649 19283 ft 221 kts
2026-04-28 01:43 35.77729 -77.70212 19283 ft 221 kts
2026-04-28 01:44 35.79228 -77.69773 19281 ft 221 kts
2026-04-28 01:44 35.80726 -77.69335 19282 ft 221 kts
2026-04-28 01:44 35.82225 -77.68896 19296 ft 221 kts
2026-04-28 01:44 35.83720 -77.68436 19298 ft 223 kts 13°
2026-04-28 01:45 35.85063 -77.67436 19306 ft 232 kts 39°
2026-04-28 01:45 35.86114 -77.65880 19169 ft 241 kts 49°
2026-04-28 01:45 35.87120 -77.64199 18958 ft 246 kts 48°
2026-04-28 01:45 35.88191 -77.62539 18725 ft 249 kts 46°
2026-04-28 01:46 35.89296 -77.60885 18480 ft 251 kts 46°
2026-04-28 01:46 35.90399 -77.59213 18217 ft 252 kts 46°
2026-04-28 01:46 35.91501 -77.57532 17948 ft 252 kts 46°
2026-04-28 01:46 35.92587 -77.55873 17692 ft 246 kts 46°
2026-04-28 01:47 35.93653 -77.54246 17418 ft 242 kts 46°
2026-04-28 01:47 35.94705 -77.52644 17149 ft 239 kts 46°
2026-04-28 01:47 35.95745 -77.51058 16881 ft 236 kts 46°
2026-04-28 01:47 35.96775 -77.49487 16626 ft 235 kts 46°
2026-04-28 01:48 35.97798 -77.47926 16365 ft 233 kts 46°
2026-04-28 01:48 35.98813 -77.46373 16105 ft 232 kts 46°
2026-04-28 01:48 35.99823 -77.44831 15852 ft 230 kts 46°
2026-04-28 01:48 36.00826 -77.43296 15606 ft 229 kts 45°
2026-04-28 01:49 36.01825 -77.41768 15359 ft 228 kts 45°
2026-04-28 01:49 36.02819 -77.40247 15115 ft 227 kts 45°
2026-04-28 01:49 36.03807 -77.38734 14873 ft 226 kts 45°
2026-04-28 01:49 36.04791 -77.37227 14636 ft 225 kts 45°
2026-04-28 01:50 36.05770 -77.35727 14400 ft 224 kts 45°
2026-04-28 01:50 36.06743 -77.34234 14170 ft 222 kts 45°
2026-04-28 01:50 36.07712 -77.32749 13914 ft 221 kts 45°
2026-04-28 01:50 36.08675 -77.31270 13659 ft 220 kts 45°
2026-04-28 01:51 36.09634 -77.29798 13408 ft 219 kts 45°
2026-04-28 01:51 36.10587 -77.28333 13160 ft 218 kts 45°
2026-04-28 01:51 36.11536 -77.26876 12916 ft 217 kts 45°
2026-04-28 01:51 36.12467 -77.25446 12674 ft 216 kts 45°
2026-04-28 01:52 36.13405 -77.24001 12434 ft 215 kts 46°
2026-04-28 01:52 36.14339 -77.22565 12201 ft 214 kts 46°
2026-04-28 01:52 36.15269 -77.21134 11964 ft 213 kts 46°
2026-04-28 01:52 36.16194 -77.19710 11735 ft 212 kts 46°
2026-04-28 01:53 36.17128 -77.18271 11505 ft 211 kts 46°
2026-04-28 01:53 36.18032 -77.16877 11283 ft 210 kts 46°
2026-04-28 01:53 36.18957 -77.15453 11058 ft 209 kts 46°
2026-04-28 01:53 36.19864 -77.14052 10831 ft 208 kts 46°
2026-04-28 01:54 36.20757 -77.12676 10614 ft 207 kts 46°
2026-04-28 01:54 36.21669 -77.11268 10394 ft 206 kts 47°
2026-04-28 01:54 36.22553 -77.09901 10174 ft 206 kts 47°
2026-04-28 01:54 36.23446 -77.08523 9934 ft 205 kts 47°
2026-04-28 01:55 36.24333 -77.07151 9694 ft 204 kts 47°
2026-04-28 01:55 36.25218 -77.05784 9465 ft 203 kts 47°
2026-04-28 01:55 36.26097 -77.04424 9236 ft 202 kts 47°
2026-04-28 01:55 36.26971 -77.03071 9004 ft 201 kts 47°
2026-04-28 01:56 36.27842 -77.01723 8775 ft 200 kts 47°
2026-04-28 01:56 36.28708 -77.00381 8550 ft 199 kts 47°
2026-04-28 01:56 36.29571 -76.99046 8325 ft 198 kts 47°
2026-04-28 01:56 36.30428 -76.97717 8101 ft 197 kts 47°
2026-04-28 01:57 36.31281 -76.96393 7886 ft 196 kts 47°
2026-04-28 01:57 36.32130 -76.95077 7669 ft 195 kts 47°
2026-04-28 01:57 36.32975 -76.93766 7458 ft 194 kts 48°
2026-04-28 01:57 36.33816 -76.92462 7241 ft 193 kts 48°
2026-04-28 01:58 36.34652 -76.91162 7035 ft 192 kts 48°
2026-04-28 01:58 36.35484 -76.89870 6828 ft 191 kts 48°
2026-04-28 01:58 36.36314 -76.88581 6618 ft 191 kts 48°
2026-04-28 01:58 36.37141 -76.87302 6398 ft 189 kts 47°
2026-04-28 01:59 36.38056 -76.86147 6179 ft 187 kts 44°
2026-04-28 01:59 36.38959 -76.84983 5963 ft 187 kts 45°
2026-04-28 01:59 36.39857 -76.83823 5746 ft 186 kts 45°
2026-04-28 01:59 36.40757 -76.82671 5533 ft 185 kts 46°
2026-04-28 02:00 36.41654 -76.81526 5329 ft 185 kts 46°
2026-04-28 02:00 36.42547 -76.80384 5129 ft 184 kts 47°
2026-04-28 02:00 36.43436 -76.79247 4919 ft 183 kts 47°
2026-04-28 02:00 36.44320 -76.78116 4708 ft 182 kts 47°
2026-04-28 02:01 36.44901 -76.77371 4577 ft 181 kts 48°
2026-04-28 02:01 36.46057 -76.75892 4297 ft 179 kts 48°
2026-04-28 02:01 36.46640 -76.75144 4160 ft 178 kts 48°
2026-04-28 02:01 36.47498 -76.74046 3959 ft 176 kts 49°
2026-04-28 02:02 36.48347 -76.72957 3757 ft 175 kts 49°
2026-04-28 02:02 36.49182 -76.71888 3620 ft 170 kts 49°
2026-04-28 02:02 36.49995 -76.70845 3495 ft 166 kts 49°
2026-04-28 02:02 36.50795 -76.69819 3370 ft 164 kts 49°
2026-04-28 02:03 36.51586 -76.68803 3238 ft 163 kts 49°
2026-04-28 02:03 36.52332 -76.67751 3109 ft 161 kts 54°
2026-04-28 02:03 36.53028 -76.66659 2977 ft 161 kts 53°
2026-04-28 02:03 36.53734 -76.65581 2848 ft 161 kts 52°
2026-04-28 02:04 36.54443 -76.64511 2716 ft 160 kts 52°
2026-04-28 02:04 36.55153 -76.63441 2588 ft 160 kts 52°
2026-04-28 02:04 36.55863 -76.62371 2460 ft 160 kts 52°
2026-04-28 02:04 36.56572 -76.61303 2337 ft 160 kts 52°
2026-04-28 02:05 36.57272 -76.60248 2213 ft 160 kts 52°
2026-04-28 02:05 36.57977 -76.59184 2125 ft 157 kts 52°
2026-04-28 02:05 36.58665 -76.58146 2125 ft 157 kts 52°
2026-04-28 02:05 36.59378 -76.57070 2131 ft 165 kts 52°
2026-04-28 02:06 36.60119 -76.55952 2130 ft 170 kts 52°
2026-04-28 02:06 36.60877 -76.54807 2135 ft 173 kts 52°
2026-04-28 02:06 36.61646 -76.53642 2136 ft 175 kts 52°
2026-04-28 02:06 36.62424 -76.52469 2127 ft 176 kts 52°
2026-04-28 02:07 36.63205 -76.51287 2124 ft 177 kts 52°
2026-04-28 02:07 36.63989 -76.50103 2126 ft 178 kts 52°
2026-04-28 02:07 36.64774 -76.48915 2137 ft 178 kts 52°
2026-04-28 02:07 36.65558 -76.47727 2128 ft 178 kts 52°
2026-04-28 02:08 36.66338 -76.46547 2121 ft 173 kts 52°
2026-04-28 02:08 36.67074 -76.45434 2104 ft 160 kts 52°
2026-04-28 02:08 36.67758 -76.44399 2106 ft 150 kts 52°
2026-04-28 02:08 36.68408 -76.43413 2107 ft 144 kts 52°
2026-04-28 02:09 36.69036 -76.42462 2111 ft 140 kts 53°
2026-04-28 02:09 36.69644 -76.41532 2102 ft 137 kts 53°
2026-04-28 02:09 36.70245 -76.40619 2104 ft 135 kts 53°
2026-04-28 02:09 36.70841 -76.39717 2111 ft 135 kts 53°
2026-04-28 02:10 36.71436 -76.38815 2110 ft 134 kts 53°
2026-04-28 02:10 36.72030 -76.37916 2104 ft 134 kts 53°
2026-04-28 02:10 36.72621 -76.37018 2105 ft 134 kts 52°
2026-04-28 02:10 36.73214 -76.36119 2105 ft 134 kts 52°
2026-04-28 02:11 36.73802 -76.35229 2148 ft 131 kts 51°
2026-04-28 02:11 36.74454 -76.34452 2137 ft 134 kts 35°
2026-04-28 02:11 36.75305 -76.33922 2060 ft 140 kts 28°
2026-04-28 02:11 36.76135 -76.33332 2026 ft 134 kts 42°
2026-04-28 02:12 36.76799 -76.32548 1935 ft 130 kts 49°
2026-04-28 02:12 36.77394 -76.31715 1824 ft 128 kts 44°
2026-04-28 02:12 36.78113 -76.31071 1728 ft 128 kts 39°
2026-04-28 02:12 36.78807 -76.30385 1609 ft 126 kts 42°
2026-04-28 02:13 36.79450 -76.29709 1532 ft 113 kts 41°
2026-04-28 02:13 36.80031 -76.29104 1446 ft 107 kts 43°
2026-04-28 02:13 36.80601 -76.28522 1445 ft 104 kts 40°
2026-04-28 02:13 36.81189 -76.28006 1487 ft 103 kts 36°
2026-04-28 02:14 36.81784 -76.27484 1526 ft 106 kts 40°
2026-04-28 02:14 36.82370 -76.26904 1529 ft 110 kts 41°
2026-04-28 02:14 36.82974 -76.26301 1534 ft 111 kts 40°
2026-04-28 02:14 36.83574 -76.25705 1527 ft 110 kts 41°
2026-04-28 02:15 36.84688 -76.24608 1145 ft 96 kts 41°
2026-04-28 02:15 36.85196 -76.24092 993 ft 93 kts 40°
2026-04-28 02:15 36.85708 -76.23605 850 ft 94 kts 38°
2026-04-28 02:16 36.86222 -76.23130 709 ft 89 kts 38°
2026-04-28 02:16 36.86700 -76.22673 592 ft 86 kts 40°
2026-04-28 02:16 36.87158 -76.22186 472 ft 88 kts 39°
2026-04-28 02:16 36.87663 -76.21717 359 ft 91 kts 38°
2026-04-28 02:17 36.88170 -76.21226 232 ft 94 kts 37°
2026-04-28 02:17 36.88689 -76.20726 79 ft 93 kts 36°
2026-04-28 02:17 36.89172 -76.20263 28 ft 78 kts 38°
2026-04-28 02:17 36.89546 -76.19904 27 ft 54 kts 37°
2026-04-28 02:18 36.89780 -76.19681 22 ft 41 kts 38°
2026-04-28 02:18 36.89943 -76.19499 21 ft 15 kts 76°
2026-04-28 02:18 36.89858 -76.19459 22 ft 18 kts 180°
2026-04-28 02:18 36.89716 -76.19463 23 ft 21 kts 181°
2026-04-28 02:19 36.89591 -76.19467 21 ft 18 kts 180°
2026-04-28 02:19 36.89466 -76.19468 25 ft 18 kts 182°
2026-04-28 02:19 36.89353 -76.19474 26 ft 17 kts 197°
2026-04-28 02:19 36.89229 -76.19543 22 ft 22 kts 205°
2026-04-28 02:20 36.89104 -76.19617 23 ft 19 kts 205°
2026-04-28 02:20 36.88983 -76.19686 23 ft 19 kts 204°
2026-04-28 02:20 36.88900 -76.19752 23 ft 12 kts 246°
2026-04-28 02:20 36.88885 -76.19850 23 ft 12 kts 277°
2026-04-28 02:21 36.88864 -76.19949 22 ft 13 kts 245°
2026-04-28 02:21 36.88828 -76.20069 21 ft 16 kts 250°
2026-04-28 02:21 36.88790 -76.20085 20 ft 9 kts 120°
2026-04-28 02:21 36.88736 -76.20020 20 ft 12 kts 184°
2026-04-28 02:22 36.88676 -76.20079 21 ft 10 kts 253°
2026-04-28 02:22 36.88671 -76.20149 21 ft 4 kts 275°
2026-04-28 02:22 36.88662 -76.20157 21 ft 1 kts 135°
2026-04-28 02:22 36.88658 -76.20150 21 ft 2 kts 127°
2026-04-28 02:23 36.88657 -76.20149 21 ft 0 kts 126°
2026-04-28 02:23 36.88656 -76.20147 21 ft 0 kts 128°